Location: Capelle
(50.3413°N, 1.9974°E)
Time: 00:15:29
(UTC+00:00)

SAR-Lupe-4 - Pass Details

Date: 12 January 2026
Orbit: 480 x 483 km, 98.1° (Epoch: 10 January)

Event Time Altitude Azimuth Distance (km) Brightness Sun altitude
Rises 16:58:24 0° 139° (SE) 2,537 7.1 -7.1°
Reaches altitude 10° 17:00:36 10° 129° (SE) 1,663 6.0 -7.5°
Maximum altitude 17:03:45 30° 67° (ENE) 894 4.3 -7.9°
Drops below altitude 10° 17:06:56 10° 5° (N) 1,676 6.0 -8.4°
Sets 17:09:09 0° 354° (N) 2,562 7.0 -8.7°
